Location: Chervonnoye
(48.6000°N, 34.4000°E)
Time: 06:05:49
(UTC+00:00)

Cosmos 1125 Rocket - Pass Details

Date: 23 November 2020
Orbit: 757 x 780 km, 74.0° (Epoch: 18 January)

Event Time Altitude Azimuth Distance (km) Brightness Sun altitude
Rises 14:20:26 0° 342° (NNW) 3,227 6.7 -4.6°
Reaches altitude 10° 14:23:01 10° 351° (N) 2,298 5.8 -5.0°
Maximum altitude 14:27:45 34° 57° (ENE) 1,235 4.1 -5.7°
Drops below altitude 10° 14:32:28 10° 122° (ESE) 2,290 5.6 -6.4°
Sets 14:35:02 0° 131° (SE) 3,215 6.5 -6.8°
